Time,TemperatureF,DewpointF,PressureIn,WindDirection,WindDirectionDegrees,WindSpeedMPH,WindSpeedGustMPH,Humidity,HourlyPrecipIn,Conditions,Clouds,dailyrainin,SoftwareType,DateUTC
2013-09-03 00:10:00,73.1,73.0,29.97,East,83,0.0,0.0,98,0.00,,,0.00,weatherlink.com 1.10,2013-09-03 04:10:00,
2013-09-03 00:25:00,73.1,73.0,29.97,ENE,71,0.0,0.0,99,0.00,,,0.00,weatherlink.com 1.10,2013-09-03 04:25:00,
2013-09-03 00:40:00,73.1,73.0,29.97,ESE,111,0.0,0.0,99,0.00,,,0.00,weatherlink.com 1.10,2013-09-03 04:40:00,
2013-09-03 00:55:00,73.1,73.0,29.97,ESE,113,0.0,1.0,99,0.00,,,0.00,weatherlink.com 1.10,2013-09-03 04:55:00,
2013-09-03 01:10:00,73.0,73.0,29.97,ESE,113,0.0,1.0,99,0.00,,,0.00,weatherlink.com 1.10,2013-09-03 05:10:00,
2013-09-03 01:25:00,72.8,73.0,29.96,East,97,0.0,1.0,99,0.00,,,0.00,weatherlink.com 1.10,2013-09-03 05:25:00,
2013-09-03 01:40:00,72.8,73.0,29.96,ESE,111,0.0,1.0,99,0.00,,,0.00,weatherlink.com 1.10,2013-09-03 05:40:00,
2013-09-03 01:56:00,72.8,73.0,29.96,East,92,0.0,0.0,99,0.00,,,0.00,weatherlink.com 1.10,2013-09-03 05:56:00,
2013-09-03 02:11:00,73.2,73.0,29.95,ESE,105,0.0,0.0,99,0.00,,,0.00,weatherlink.com 1.10,2013-09-03 06:11:00,
2013-09-03 02:26:00,73.1,73.0,29.95,ESE,103,0.0,1.0,99,0.00,,,0.00,weatherlink.com 1.10,2013-09-03 06:26:00,
2013-09-03 02:41:00,73.2,73.0,29.95,ESE,113,0.0,1.0,99,0.00,,,0.00,weatherlink.com 1.10,2013-09-03 06:41:00,
2013-09-03 02:56:00,73.0,73.0,29.95,ESE,123,0.0,1.0,99,0.00,,,0.00,weatherlink.com 1.10,2013-09-03 06:56:00,
2013-09-03 03:11:00,72.8,73.0,29.94,East,82,0.0,1.0,99,0.00,,,0.00,weatherlink.com 1.10,2013-09-03 07:11:00,
2013-09-03 03:26:00,72.6,72.0,29.94,ESE,121,0.0,1.0,99,0.00,,,0.00,weatherlink.com 1.10,2013-09-03 07:26:00,
2013-09-03 03:41:00,72.7,72.0,29.93,ESE,107,0.0,1.0,99,0.00,,,0.00,weatherlink.com 1.10,2013-09-03 07:41:00,
2013-09-03 03:56:00,72.7,72.0,29.92,East,96,0.0,1.0,99,0.00,,,0.00,weatherlink.com 1.10,2013-09-03 07:56:00,
2013-09-03 04:11:00,72.8,73.0,29.92,ESE,108,0.0,1.0,99,0.00,,,0.00,weatherlink.com 1.10,2013-09-03 08:11:00,
2013-09-03 04:26:00,72.6,72.0,29.92,East,97,0.0,1.0,99,0.00,,,0.00,weatherlink.com 1.10,2013-09-03 08:26:00,
2013-09-03 04:41:00,72.6,72.0,29.92,ESE,106,0.0,1.0,99,0.00,,,0.00,weatherlink.com 1.10,2013-09-03 08:41:00,
2013-09-03 04:56:00,72.6,72.0,29.91,East,88,0.0,1.0,99,0.00,,,0.00,weatherlink.com 1.10,2013-09-03 08:56:00,
2013-09-03 05:11:00,72.3,72.0,29.92,East,84,0.0,1.0,99,0.00,,,0.00,weatherlink.com 1.10,2013-09-03 09:11:00,
2013-09-03 05:26:00,72.1,72.0,29.92,East,101,0.0,1.0,99,0.00,,,0.00,weatherlink.com 1.10,2013-09-03 09:26:00,
2013-09-03 05:41:00,72.2,72.0,29.92,East,83,0.0,1.0,100,0.00,,,0.00,weatherlink.com 1.10,2013-09-03 09:41:00,
2013-09-03 05:56:00,72.0,72.0,29.93,East,98,0.0,1.0,99,0.00,,,0.00,weatherlink.com 1.10,2013-09-03 09:56:00,
2013-09-03 06:11:00,71.9,72.0,29.93,East,91,0.0,1.0,99,0.00,,,0.00,weatherlink.com 1.10,2013-09-03 10:11:00,
2013-09-03 06:26:00,72.2,72.0,29.94,ESE,112,0.0,1.0,100,0.00,,,0.00,weatherlink.com 1.10,2013-09-03 10:26:00,
2013-09-03 06:41:00,72.3,72.0,29.94,NNE,18,0.0,1.0,100,0.00,,,0.00,weatherlink.com 1.10,2013-09-03 10:41:00,
2013-09-03 06:56:00,72.3,72.0,29.94,ESE,110,0.0,1.0,100,0.00,,,0.00,weatherlink.com 1.10,2013-09-03 10:56:00,
2013-09-03 07:11:00,72.3,72.0,29.94,NE,42,1.0,1.0,99,0.00,,,0.00,weatherlink.com 1.10,2013-09-03 11:11:00,
2013-09-03 07:26:00,72.4,72.0,29.95,East,85,0.0,0.0,99,0.00,,,0.00,weatherlink.com 1.10,2013-09-03 11:26:00,
2013-09-03 07:41:00,72.9,73.0,29.95,ENE,61,0.0,4.0,100,0.00,,,0.00,weatherlink.com 1.10,2013-09-03 11:41:00,
2013-09-03 07:56:00,73.9,74.0,29.95,ESE,114,0.0,1.0,100,0.00,,,0.00,weatherlink.com 1.10,2013-09-03 11:56:00,
2013-09-03 08:11:00,75.7,76.0,29.96,ENE,65,0.0,1.0,100,0.00,,,0.00,weatherlink.com 1.10,2013-09-03 12:11:00,
2013-09-03 08:26:00,77.1,77.0,29.96,ENE,68,0.0,1.0,100,0.00,,,0.00,weatherlink.com 1.10,2013-09-03 12:26:00,
2013-09-03 08:41:00,78.5,78.0,29.96,ENE,69,0.0,1.0,99,0.00,,,0.00,weatherlink.com 1.10,2013-09-03 12:41:00,
2013-09-03 08:56:00,80.4,79.0,29.96,East,83,0.0,1.0,96,0.00,,,0.00,weatherlink.com 1.10,2013-09-03 12:56:00,
2013-09-03 09:11:00,82.1,80.0,29.97,East,90,0.0,0.0,92,0.00,,,0.00,weatherlink.com 1.10,2013-09-03 13:11:00,
2013-09-03 09:26:00,84.1,80.0,29.97,East,101,0.0,1.0,87,0.01,,,0.01,weatherlink.com 1.10,2013-09-03 13:26:00,
2013-09-03 09:41:00,85.0,80.0,29.98,NE,49,0.0,1.0,84,0.01,,,0.01,weatherlink.com 1.10,2013-09-03 13:41:00,
2013-09-03 09:56:00,86.1,80.0,29.98,East,92,1.0,1.0,81,0.01,,,0.01,weatherlink.com 1.10,2013-09-03 13:56:00,
2013-09-03 10:11:00,86.9,80.0,29.99,East,90,0.0,1.0,80,0.01,,,0.01,weatherlink.com 1.10,2013-09-03 14:11:00,
2013-09-03 10:26:00,88.2,80.0,29.99,West,259,0.0,2.0,77,0.00,,,0.01,weatherlink.com 1.10,2013-09-03 14:26:00,
2013-09-03 10:41:00,88.2,80.0,30.00,East,98,0.0,1.0,77,0.00,,,0.01,weatherlink.com 1.10,2013-09-03 14:41:00,
2013-09-03 10:56:00,88.5,80.0,30.00,WNW,283,0.0,2.0,76,0.00,,,0.01,weatherlink.com 1.10,2013-09-03 14:56:00,
2013-09-03 11:12:00,89.3,78.0,30.00,East,87,2.0,2.0,70,0.00,,,0.01,weatherlink.com 1.10,2013-09-03 15:12:00,
2013-09-03 11:27:00,90.6,77.0,30.00,WSW,257,0.0,4.0,65,0.00,,,0.01,weatherlink.com 1.10,2013-09-03 15:27:00,
2013-09-03 11:42:00,90.2,76.0,30.01,NW,311,0.0,3.0,64,0.00,,,0.01,weatherlink.com 1.10,2013-09-03 15:42:00,
2013-09-03 11:57:00,90.6,76.0,30.00,NE,42,1.0,5.0,62,0.00,,,0.01,weatherlink.com 1.10,2013-09-03 15:57:00,
2013-09-03 12:12:00,91.3,75.0,29.99,WNW,293,1.0,3.0,60,0.00,,,0.01,weatherlink.com 1.10,2013-09-03 16:12:00,
2013-09-03 12:27:00,91.2,76.0,29.99,ESE,105,0.0,1.0,62,0.00,,,0.01,weatherlink.com 1.10,2013-09-03 16:27:00,
2013-09-03 12:42:00,86.7,78.0,30.00,East,101,2.0,8.0,74,0.00,,,0.01,weatherlink.com 1.10,2013-09-03 16:42:00,
2013-09-03 12:57:00,82.9,78.0,30.00,SE,127,1.0,6.0,85,0.02,,,0.03,weatherlink.com 1.10,2013-09-03 16:57:00,
2013-09-03 13:12:00,81.2,77.0,29.99,ESE,111,0.0,5.0,88,0.03,,,0.04,weatherlink.com 1.10,2013-09-03 17:12:00,
2013-09-03 13:27:00,81.6,78.0,29.98,ESE,106,1.0,2.0,89,0.03,,,0.04,weatherlink.com 1.10,2013-09-03 17:27:00,
2013-09-03 13:42:00,82.5,78.0,29.98,SE,134,0.0,3.0,87,0.03,,,0.04,weatherlink.com 1.10,2013-09-03 17:42:00,
2013-09-03 13:57:00,83.5,78.0,29.97,ESE,121,0.0,4.0,83,0.01,,,0.04,weatherlink.com 1.10,2013-09-03 17:57:00,
2013-09-03 14:12:00,83.9,79.0,29.96,ESE,106,1.0,2.0,85,0.00,,,0.04,weatherlink.com 1.10,2013-09-03 18:12:00,
2013-09-03 14:27:00,85.0,80.0,29.96,SSE,148,1.0,2.0,86,0.00,,,0.04,weatherlink.com 1.10,2013-09-03 18:27:00,
2013-09-03 14:42:00,86.3,80.0,29.96,ESE,115,3.0,7.0,81,0.00,,,0.04,weatherlink.com 1.10,2013-09-03 18:42:00,
2013-09-03 14:57:00,87.5,80.0,29.95,ESE,113,2.0,10.0,77,0.00,,,0.04,weatherlink.com 1.10,2013-09-03 18:57:00,
2013-09-03 15:12:00,87.5,79.0,29.95,ESE,113,4.0,7.0,75,0.00,,,0.04,weatherlink.com 1.10,2013-09-03 19:12:00,
2013-09-03 15:27:00,87.4,79.0,29.95,SSE,150,2.0,7.0,75,0.00,,,0.04,weatherlink.com 1.10,2013-09-03 19:27:00,
2013-09-03 15:42:00,88.0,78.0,29.94,SSE,158,3.0,7.0,73,0.00,,,0.04,weatherlink.com 1.10,2013-09-03 19:42:00,
2013-09-03 15:57:00,88.4,79.0,29.93,ENE,68,2.0,8.0,74,0.00,,,0.04,weatherlink.com 1.10,2013-09-03 19:57:00,
2013-09-03 16:12:00,89.0,78.0,29.92,SE,136,1.0,7.0,71,0.00,,,0.04,weatherlink.com 1.10,2013-09-03 20:12:00,
2013-09-03 16:27:00,88.3,78.0,29.93,SE,143,2.0,5.0,72,0.00,,,0.04,weatherlink.com 1.10,2013-09-03 20:27:00,
2013-09-03 16:42:00,87.4,78.0,29.93,East,98,1.0,7.0,74,0.00,,,0.04,weatherlink.com 1.10,2013-09-03 20:42:00,
2013-09-03 16:57:00,87.0,78.0,29.93,SE,145,0.0,6.0,74,0.00,,,0.04,weatherlink.com 1.10,2013-09-03 20:57:00,
2013-09-03 17:12:00,86.3,78.0,29.93,South,174,2.0,6.0,76,0.00,,,0.04,weatherlink.com 1.10,2013-09-03 21:12:00,
2013-09-03 17:27:00,85.9,78.0,29.94,SE,127,2.0,7.0,76,0.00,,,0.04,weatherlink.com 1.10,2013-09-03 21:27:00,
2013-09-03 17:42:00,85.4,78.0,29.94,East,91,2.0,4.0,78,0.00,,,0.04,weatherlink.com 1.10,2013-09-03 21:42:00,
2013-09-03 17:57:00,84.7,78.0,29.94,ESE,121,1.0,4.0,81,0.00,,,0.00,weatherlink.com 1.10,2013-09-03 21:57:00,
2013-09-03 18:12:00,84.3,78.0,29.94,SSE,152,0.0,3.0,82,0.00,,,0.00,weatherlink.com 1.10,2013-09-03 22:12:00,
2013-09-03 18:27:00,83.1,76.0,29.94,NW,318,0.0,5.0,78,0.00,,,0.00,weatherlink.com 1.10,2013-09-03 22:27:00,
2013-09-03 18:42:00,81.9,75.0,29.94,WNW,283,0.0,4.0,79,0.00,,,0.00,weatherlink.com 1.10,2013-09-03 22:42:00,
2013-09-03 18:57:00,81.2,75.0,29.94,NW,311,2.0,5.0,82,0.00,,,0.00,weatherlink.com 1.10,2013-09-03 22:57:00,
2013-09-03 19:12:00,80.3,75.0,29.95,WNW,294,0.0,1.0,83,0.00,,,0.00,weatherlink.com 1.10,2013-09-03 23:12:00,
2013-09-03 19:27:00,80.1,75.0,29.95,WNW,294,0.0,0.0,83,0.00,,,0.00,weatherlink.com 1.10,2013-09-03 23:27:00,
2013-09-03 19:43:00,80.1,75.0,29.96,WNW,294,0.0,0.0,84,0.00,,,0.00,weatherlink.com 1.10,2013-09-03 23:43:00,
2013-09-03 19:58:00,80.1,75.0,29.96,ESE,110,0.0,1.0,85,0.00,,,0.00,weatherlink.com 1.10,2013-09-03 23:58:00,
2013-09-03 20:13:00,80.2,76.0,29.96,ESE,112,0.0,1.0,86,0.00,,,0.00,weatherlink.com 1.10,2013-09-04 00:13:00,
2013-09-03 20:28:00,80.2,75.0,29.96,East,92,0.0,1.0,85,0.00,,,0.00,weatherlink.com 1.10,2013-09-04 00:28:00,
2013-09-03 20:43:00,80.1,76.0,29.96,SE,124,0.0,1.0,87,0.00,,,0.00,weatherlink.com 1.10,2013-09-04 00:43:00,
2013-09-03 20:58:00,80.2,76.0,29.97,ESE,122,0.0,1.0,87,0.00,,,0.00,weatherlink.com 1.10,2013-09-04 00:58:00,
2013-09-03 21:14:00,80.3,77.0,29.97,SE,124,0.0,1.0,88,0.00,,,0.00,weatherlink.com 1.10,2013-09-04 01:14:00,
2013-09-03 21:28:00,79.9,76.0,29.97,ESE,110,0.0,1.0,88,0.00,,,0.00,weatherlink.com 1.10,2013-09-04 01:28:00,
2013-09-03 21:43:00,80.0,77.0,29.97,ESE,115,0.0,1.0,90,0.00,,,0.00,weatherlink.com 1.10,2013-09-04 01:43:00,
2013-09-03 21:58:00,80.5,78.0,29.98,East,92,0.0,1.0,91,0.00,,,0.00,weatherlink.com 1.10,2013-09-04 01:58:00,
2013-09-03 22:13:00,81.0,78.0,29.98,ESE,117,0.0,1.0,90,0.00,,,0.00,weatherlink.com 1.10,2013-09-04 02:13:00,
2013-09-03 22:28:00,81.0,78.0,29.98,ESE,107,0.0,1.0,90,0.00,,,0.00,weatherlink.com 1.10,2013-09-04 02:28:00,
2013-09-03 22:43:00,80.9,78.0,29.99,SE,128,0.0,1.0,90,0.00,,,0.00,weatherlink.com 1.10,2013-09-04 02:43:00,
2013-09-03 22:58:00,80.4,78.0,29.99,ESE,110,0.0,1.0,91,0.00,,,0.00,weatherlink.com 1.10,2013-09-04 02:58:00,
2013-09-03 23:13:00,79.8,77.0,29.99,East,86,0.0,1.0,92,0.00,,,0.00,weatherlink.com 1.10,2013-09-04 03:13:00,
2013-09-03 23:28:00,79.2,77.0,29.99,East,83,0.0,1.0,94,0.00,,,0.00,weatherlink.com 1.10,2013-09-04 03:28:00,
2013-09-03 23:43:00,79.2,77.0,29.99,ESE,106,0.0,1.0,94,0.00,,,0.00,weatherlink.com 1.10,2013-09-04 03:43:00,
2013-09-03 23:58:00,79.0,78.0,29.99,SE,124,0.0,1.0,95,0.00,,,0.00,weatherlink.com 1.10,2013-09-04 03:58:00,